Danbury, CT

10:25 AM EDT on August 03, 2015 (GMT -0400)
Gregory ST | | Change Station
CLOSE
Current Station
Personal Weather Station
Location: Danbury, CT
Elevation: 621 ft
Nearby Weather Stations

Elev 621 ft 41.40 °N, 73.48 °W | Updated 5 seconds ago

Clear
Clear
79.3 °F
Feels Like 81 °F
N
10.0
Wind Variable Wind from SSW
Gusts 14.0 mph

Today
High -- | Low -- °F
--% Chance of Precip.
Yesterday
High -- | Low -- °F
Precip. -- in
5:50 AM 8:08 PM
Waning Gibbous, 86% visible
Pressure 29.85 in
Visibility 10.0 miles
Clouds Clear
Heat Index 81 °F
Dew Point 65 °F
Humidity 62%
Rainfall 0.00 in
Snow Depth Not available.
UV 6 out of 12
Pollen 7.60 out of 12
Air Quality Not available.
Flu Activity Not available.
METAR KDXR 031353Z 21008KT 10SM CLR 27/15 A2986 RMK AO2 SLP106 T02670150

More Conditions Fewer Conditions

Pressure 29.85 in
Visibility 10.0 miles
Clouds Clear
Heat Index 81 °F
Dew Point 65 °F
Humidity 62%
Rainfall 0.00 in
Snow Depth Not available.
UV 6 out of 12
Pollen 7.60 out of 12
Air Quality Not available.
Flu Activity Not available.
METAR KDXR 031353Z 21008KT 10SM CLR 27/15 A2986 RMK AO2 SLP106 T02670150

More Conditions Fewer Conditions

10-Day Weather Forecast

×

Almanac

Astronomy

Aug. 03, 2015 Rise Set
Actual Time
Civil Twilight
Nautical Twilight
Astronomical Twilight
Moon
Length of Visible Light
Length of Day
Tomorrow will be .
, % of the Moon is Illuminated

Today's Extremes

State Highs State Lows

Community

WunderPhotos

Upload Photos

1,843,638 photos uploaded!

WunderBlogs® & News

Nearby

Air Quality

  Air Quality AQ Index Pollutant
Not available.

Snow Depth

Station Depth Elevation

Earthquake Activity

City Distance Mag. Time & Date
Minimum magnitude displayed is 2.5.

Coastal Water Temperatures

Place Temperature

Stations

Nearby Weather Stations

Station Location Temp. Windchill Dew Point Humidity Wind Precip. Elev Updated Type